Location: Caltech
(34.1382°N, 118.1253°W)
Time: 11:43:05
(UTC-07:00)

AO-7 - Visible Passes

Search period start: 21 May 2018 00:00
Search period end: 31 May 2018 00:00
Orbit: 1439 x 1459 km, 101.7° (Epoch: 20 May)

Date Brightness Start Highest point End Pass type
(mag) Time Alt. Az. Time Alt. Az. Time Alt. Az.
21 May ? 03:53:42 10° NNE 04:01:42 49° ESE 04:09:40 10° S visible
22 May ? 02:56:00 10° NE 03:01:16 18° E 03:06:30 10° SE visible
22 May ? 04:46:19 10° NNE 04:54:40 80° WNW 05:03:01 10° SSW visible
23 May ? 03:46:50 10° NNE 03:54:41 44° E 04:02:30 10° S visible
24 May ? 02:49:36 10° ENE 02:54:11 16° E 02:58:44 10° SE visible
24 May ? 04:39:18 10° NNE 04:47:42 87° WNW 04:56:04 10° SSW visible
25 May ? 03:39:58 10° NNE 03:47:40 39° E 03:55:18 10° SSE visible
26 May ? 02:43:24 10° ENE 02:47:05 13° E 02:50:47 10° ESE visible
26 May ? 04:32:19 10° NNE 04:40:44 85° ESE 04:49:06 10° SSW visible
27 May ? 03:33:11 10° NE 03:40:38 35° E 03:48:02 10° SSE visible
28 May ? 02:37:36 10° ENE 02:39:59 11° E 02:42:22 10° ESE visible
28 May ? 04:25:21 10° NNE 04:33:45 78° ESE 04:42:07 10° SSW visible
29 May ? 03:26:23 10° NE 03:33:35 31° E 03:40:44 10° SSE visible
30 May ? 04:18:24 10° NNE 04:26:45 71° ESE 04:35:05 10° S visible
